Tracking 30105 objects as of 24-Jan-2025
HD Live streaming from Space Station
objects crossing your sky now

ELECTRON KICK STAGE R/B

Track ELECTRON KICK STAGE R/B now!
10-day predictions


NORAD ID: 56752
Int'l Code: 2023-073A
Perigee: 431.3 km
Apogee: 443.2 km
Inclination: 32.7 °
Period: 93.2 minutes
Semi major axis: 6808 km
RCS: Unknown
Launch date: May 26, 2023
Source: United States (US)
Launch site: Rocket Lab Launch Complex (RLLC)

Note: This is a ROCKET BODY
Your satellite tracking list
Your tracking list is empty




NASA's NSSDC Master Catalog

Two Line Element Set (TLE):
1 56752U 23073A   25024.33652661  .00096404  00000-0  19259-2 0  9996
2 56752  32.7194 257.8810 0008764 339.1704  20.8618 15.45426865 92671
Source of the keplerian elements: AFSPC